Other Public Products
Issued by NWS Charleston, SC

Current Version | Previous Version | Graphics & Text | Print | Product List | Glossary On
Versions: 1 2 3 4 5 6 7 8 9 10 11 12 13 14 15 16 17 18 19 20 21 22 23 24 25 26 27 28 29 30 31 32 33 34 35 36 37 38 39 40 41 42 43 44 45 46 47 48 49 50
476
FPUS82 KCHS 101627
OPUCHS

TEST...KCHS/KSAV Gateway Observations...TEST
National Weather Service Charleston SC
1100 AM EST SAT DEC 10 2016

NOTE: "fair" indicates few or no clouds below 12,000 feet with no
significant weather and/or obstructions to visibility.

SCZ050-WAZ558-NCZ071-TXZ119-213-PAZ071-DCZ001-FLZ074-172-MI076-
NYZ176-178-MAZ016-IL014-TNZ027-NJZ106-GAZ044-MD014-101700-
...Gateway Observations for Charleston International...

CITY           SKY/WX    TMP DP  RH WIND       PRES   REMARKS
Chas Airport   MOSUNNY   45  21  38 NE8       30.55F
Seattle        MOCLDY    38  36  92 SE12      29.86S WCI  30
Charlotte      SUNNY     36  14  40 CALM      30.56S
Dallas DFW     PTSUNNY   42  25  50 S14       30.45R
Dallas Love    PTSUNNY   42  26  53 S15       30.47S
Philladelphia  MOSUNNY   35  16  45 NW15      30.44F WCI  25
Wash National  MOSUNNY   36  14  40 NW14G22   30.51F WCI  27
Baltimore      MOSUNNY   35  17  47 W13       30.47F WCI  26
Miami          LGT RAIN  69  68  96 NE9       30.26F FOG
Detroit        PTSUNNY   26  19  74 W9        30.47S WCI  17
Newark         PTSUNNY   34  21  59 W14G24    30.39F WCI  25
Laguardia      PTSUNNY   34  20  56 NW15      30.39F WCI  24
J F K          PTSUNNY   37  19  48 W15G22    30.40F WCI  28
Boston Logan   MOSUNNY   26   7  44 W14       30.30F WCI  14
Ft. Lauderdale RAIN      70  68  93 NE12G23   30.25F FOG
Chicago O`Hare PTSUNNY   22  14  71 W7        30.51F WCI  13
Chicago Midway PTSUNNY   22  12  65 W7        30.53S WCI  13
Houston Bush   PTSUNNY   45  31  58 E9        30.50F
Houston Hobby  PTSUNNY   48  36  63 E10       30.50R
Nashville      PTSUNNY   31  20  63 CALM      30.63S
Atlanta        SUNNY     39  18  42 NE6       30.53F WCI  35

$$

GAZ044-118-TXZ119-213-NCZ071-DCZ001-MDZ014-506-PAZ021-071-NJZ106-
NYZ176-178-MAZ106-OHZ011-021-055-MIZ076-KYZ091-ILZ014-INZ047-
MNZ060-101700-
...Gateway Observations for Savannah International...

CITY           SKY/WX    TMP DP  RH WIND       PRES   REMARKS
Savannah Arpt  MOSUNNY   49  23  36 NE10      30.54S
Atlanta        SUNNY     39  18  42 NE6       30.53F WCI  35
Charlotte      SUNNY     36  14  40 CALM      30.56S
Dallas DFW     PTSUNNY   42  25  50 S14       30.45R
Houston Bush   PTSUNNY   45  31  58 E9        30.50F
Wash National  MOSUNNY   36  14  40 NW14G22   30.51F WCI  27
Wash Dulles    MOSUNNY   34  11  38 NW14      30.49F WCI  25
Baltimore      MOSUNNY   35  17  47 W13       30.47F WCI  26
Philadelphia   MOSUNNY   35  16  45 NW15      30.44F WCI  25
Newark         PTSUNNY   34  21  59 W14G24    30.39F WCI  25
Laguardia      PTSUNNY   34  20  56 NW15      30.39F WCI  24
J F K          PTSUNNY   37  19  48 W15G22    30.40F WCI  28
Boston         MOSUNNY   26   7  44 W14       30.30F WCI  14
Pittsburg      FLURRIES  26  16  65 W14G20    30.45S WCI  14
Akron          CLOUDY    25  15  66 W14       30.47S WCI  13
Cleveland      MOSUNNY   28  15  58 W12       30.51R WCI  18
Cincinnati     PTSUNNY   25  16  68 W7        30.57R WCI  17
Columbus         N/A     27  17  64 SW8       30.54F WCI  19
Detroit        PTSUNNY   26  19  74 W9        30.47S WCI  17
Chicago O`Hare PTSUNNY   22  14  71 W7        30.51F WCI  13
Minneapolis    CLOUDY     7   0  73 CALM      30.47F
Indianapolis   CLOUDY    25  15  66 SW12      30.56R WCI  14

$$




USA.gov is the U.S. government's official web portal to all federal, state and local government web resources and services.